QPF
0.00 0.00 0.00 0.00 0.03 0.08 0.15 0.25 0.41 0.18 0.08 0.09 0.04 0.01 0.03 0.03 0.01 0.02 0.01 0.00 0.00 0.00
0.00 0.00 0.00 0.00 0.01 0.11 0.34 0.39 0.45 0.23 0.07 0.04 0.01 0.00 0.04 0.08 0.03 0.02 0.01 0.00 0.03 0.01
0.00 0.00 0.00 0.00 0.03 0.18 0.37 0.21 0.08 0.26 0.06 0.01 0.01 0.02 0.06 0.10 0.09 0.08 0.02 0.01 0.09 0.07
0.00 0.00 0.00 0.00 0.00 0.08 0.17 0.19 0.06 0.11 0.12 0.05 0.06 0.05 0.03 0.08 0.08 0.08 0.07 0.05 0.09 0.07
0.00 0.00 0.00 0.00 0.00 0.02 0.06 0.05 0.02 0.02 0.02 0.02 0.04 0.02 0.02 0.03 0.07 0.09 0.06 0.09 0.03 0.06
0.00 0.00 0.00 0.00 0.00 0.00 0.02 0.04 0.03 0.01 0.05 0.01 0.02 0.02 0.01 0.01 0.02 0.03 0.01 0.01 0.00 0.00
0.00 0.00 0.00 0.00 0.00 0.00 0.03 0.07 0.06 0.03 0.01 0.01 0.01 0.05 0.02 0.02 0.00 0.00 0.00 0.00 0.00 0.00
0.00 0.00 0.00 0.00 0.00 0.00 0.03 0.04 0.05 0.05 0.06 0.03 0.07 0.05 0.03 0.00 0.00 0.00 0.00 0.00 0.00 0.01
0.00 0.00 0.00 0.00 0.01 0.02 0.07 0.11 0.11 0.08 0.06 0.09 0.16 0.13 0.00 0.00 0.00 0.00 0.00 0.00 0.00 0.00
0.00 0.00 0.00 0.00 0.05 0.02 0.08 0.22 0.17 0.04 0.03 0.05 0.06 0.00 0.00 0.00 0.00 0.00 0.00 0.00 0.00 0.00
0.00 0.00 0.00 0.00 0.03 0.00 0.05 0.11 0.13 0.04 0.03 0.06 0.02 0.00 0.00 0.00 0.00 0.00 0.00 0.00 0.00 0.00
0.00 0.00 0.00 0.00 0.00 0.01 0.09 0.11 0.09 0.11 0.08 0.06 0.00 0.00 0.00 0.00 0.01 0.00 0.00 0.00 0.00 0.00
0.00 0.00 0.00 0.00 0.01 0.03 0.05 0.08 0.14 0.12 0.06 0.02 0.00 0.00 0.00 0.00 0.00 0.00 0.00 0.01 0.00 0.00
0.00 0.00 0.00 0.01 0.02 0.01 0.03 0.07 0.07 0.05 0.01 0.00 0.00 0.00 0.00 0.00 0.00 0.00 0.00 0.00 0.00 0.00
MSLP
1012.04 1011.89 1012.22 1013.04 1014.25 1013.90 1014.76 1016.65 1016.64 1016.06 1014.59 1015.14 1015.39 1015.10 1015.44 1015.88 1016.01 1015.92 1016.22 1016.45 1016.44 1016.42
1011.88 1012.06 1012.18 1012.65 1013.31 1015.78 1017.07 1018.35 1016.73 1015.86 1015.47 1014.94 1015.06 1015.07 1015.41 1015.78 1015.79 1015.86 1016.10 1016.05 1016.21 1016.20
1011.74 1012.05 1012.36 1012.48 1014.48 1016.48 1016.73 1017.10 1016.57 1014.78 1015.82 1015.19 1015.09 1015.23 1015.60 1015.81 1015.81 1015.91 1015.70 1015.45 1015.46 1015.86
1011.31 1011.93 1012.38 1012.36 1013.20 1014.72 1015.39 1014.77 1014.19 1014.93 1016.10 1015.12 1014.76 1014.94 1015.28 1015.64 1015.63 1015.78 1015.65 1015.50 1015.47 1015.54
1010.71 1011.23 1012.01 1012.20 1012.48 1013.67 1014.33 1014.31 1014.32 1015.16 1014.69 1014.43 1014.25 1014.48 1015.09 1015.41 1015.45 1015.48 1015.65 1015.61 1015.49 1015.65
1010.11 1010.53 1011.12 1011.83 1012.04 1012.39 1012.91 1013.75 1013.92 1014.00 1014.17 1013.98 1014.22 1014.55 1015.14 1015.26 1015.13 1015.21 1015.46 1015.40 1015.49 1015.58
1009.78 1010.26 1010.54 1011.12 1011.76 1011.96 1012.50 1013.14 1013.56 1013.76 1013.85 1013.88 1014.17 1014.80 1015.04 1015.00 1015.22 1015.48 1015.35 1015.22 1015.47 1015.62
1009.26 1009.85 1010.42 1010.66 1011.26 1011.95 1012.46 1012.86 1013.30 1013.68 1013.86 1014.20 1014.74 1014.56 1014.63 1015.06 1015.40 1015.34 1015.19 1015.21 1015.52 1015.75
1009.14 1009.63 1010.27 1010.77 1011.24 1011.86 1012.28 1012.89 1013.37 1013.68 1013.82 1014.03 1014.44 1014.56 1014.85 1015.04 1015.13 1015.03 1015.40 1015.75 1015.92 1015.99
1008.90 1009.35 1009.92 1010.63 1011.40 1011.70 1012.18 1012.41 1013.26 1013.36 1013.52 1014.18 1014.88 1015.04 1015.02 1015.15 1015.04 1015.36 1015.69 1016.01 1016.15 1016.17
1008.40 1009.07 1009.66 1010.33 1011.08 1011.35 1012.04 1012.38 1013.09 1013.16 1013.37 1014.37 1015.28 1015.36 1015.18 1015.28 1015.32 1015.42 1015.71 1015.96 1016.16 1016.29
1008.00 1008.58 1009.22 1009.93 1010.51 1011.02 1011.89 1012.25 1012.71 1013.03 1013.38 1014.47 1015.32 1015.41 1015.45 1015.63 1015.50 1015.50 1015.58 1015.92 1016.42 1016.47
1007.52 1008.26 1008.78 1009.21 1009.92 1010.42 1011.36 1011.78 1012.45 1012.96 1013.68 1014.30 1015.12 1015.58 1015.79 1015.71 1015.43 1015.28 1015.36 1016.15 1017.01 1017.19
1007.30 1007.85 1008.38 1008.80 1009.39 1010.11 1010.69 1011.35 1012.18 1013.12 1013.97 1014.62 1015.53 1016.21 1015.97 1015.75 1015.79 1015.77 1015.64 1016.11 1016.89 1017.57
Thickness
5810 5812 5812 5804 5789 5794 5788 5768 5759 5776 5795 5788 5788 5793 5791 5791 5792 5794 5789 5786 5786 5786
5811 5809 5808 5804 5797 5771 5761 5744 5757 5777 5786 5789 5791 5796 5794 5792 5794 5793 5790 5789 5787 5786
5808 5808 5806 5805 5778 5768 5770 5751 5764 5789 5783 5790 5792 5794 5792 5791 5794 5792 5794 5796 5794 5788
5809 5805 5803 5804 5792 5785 5781 5791 5798 5792 5779 5790 5797 5796 5794 5793 5794 5792 5794 5795 5792 5792
5812 5808 5799 5801 5800 5790 5784 5790 5791 5786 5790 5796 5801 5800 5794 5793 5795 5793 5790 5790 5790 5788
5816 5813 5806 5799 5802 5800 5799 5794 5794 5794 5792 5797 5799 5797 5794 5795 5795 5793 5790 5790 5788 5788
5817 5814 5812 5806 5801 5802 5799 5794 5792 5794 5796 5800 5798 5794 5794 5794 5790 5788 5790 5791 5789 5787
5822 5818 5814 5811 5806 5800 5798 5797 5796 5796 5796 5796 5793 5796 5796 5792 5789 5790 5789 5790 5789 5786
5821 5818 5814 5810 5806 5801 5799 5798 5795 5795 5797 5797 5795 5792 5792 5792 5791 5791 5786 5783 5783 5782
5823 5819 5816 5811 5803 5802 5800 5796 5792 5797 5798 5792 5788 5787 5790 5790 5792 5787 5784 5780 5779 5779
5827 5822 5818 5813 5805 5805 5801 5798 5792 5795 5798 5789 5781 5781 5786 5786 5788 5785 5783 5781 5779 5776
5832 5827 5822 5815 5810 5807 5802 5798 5796 5795 5793 5785 5780 5779 5780 5780 5783 5781 5780 5780 5774 5773
5838 5831 5826 5823 5818 5816 5807 5802 5797 5793 5789 5783 5779 5775 5774 5778 5783 5782 5781 5774 5763 5761
5839 5834 5831 5827 5823 5817 5812 5807 5799 5791 5784 5779 5773 5767 5770 5775 5777 5775 5775 5772 5764 5758